sat.trackr.live / text

‹ back to catalog

ONEWEB-0359

NORAD 49285 · 2021-090G

PAYLOAD ACTIVE UNKNOWN

§ Identity

Operator
Country
UK
Launch date
2021-10-14
Launch site
VOSTO
Launch vehicle
Mass (kg)
RCS (m²)

Purposes: comms

External: N2YO · Heavens-Above · Gunter

§ Orbital elements

Epoch: 2026-09-19T22:46:51.774240Z

Period
109.03 min
Inclination
87.9143°
Eccentricity
0.0002026
Mean motion
13.20770117 rev/d
Perigee alt
1,180.2 km
Apogee alt
1,183.3 km
Semi-major
7,559.9 km
B*
1.6706e-4
RAAN
255.5298°
Arg perigee
93.6128°
Mean anomaly
266.5237°
Rev number
24,304

§ Raw data

ONEWEB-03591 49285U 21090G   26262.94921035  .00000081  00000+0  16706-3 0  99922 49285  87.9143 255.5298 0002026  93.6128 266.5237 13.20770117243040

JSON: /api/v1/satellites/49285 · /tle

For live sub-satellite position, see the globe view (requires WebGL).

§ Visibility from observer

Set your observer location to see the next 7 days of passes ≥ 10°. The values pass through the URL so the page stays shareable.

No JS? Fill the form by hand. The geolocation button needs JavaScript.